Tracking 20232 objects as of 18-Jan-2020
HD Live streaming from Space Station
objects crossing your sky now

MARECS B2

Track MARECS B2 now!
MARECS B2 is classified as:


NORAD ID: 15386
Int'l Code: 1984-114B
Perigee: 36,535.2 km
Apogee: 37,578.8 km
Inclination: 16.1 °
Period: 1,501.1 minutes
Semi major axis: 43428 km
RCS: 3.0552 m2 (large)
Launch date: November 10, 1984
Source: European Space Agency (ESA)
Launch site: FRENCH GUIANA (FRGUI)
aabbcc
Your satellite tracking list
Your tracking list is empty




NASA's NSSDC Master Catalog

Two Line Element Set (TLE):
1 15386U 84114B   20017.55822706 -.00000175 +00000-0 +00000-0 0  9990
2 15386 016.0928 350.7032 0120149 355.6311 181.7640 00.95928576090201
Source of the keplerian elements: AFSPC